Date,TemperatureHighF,TemperatureAvgF,TemperatureLowF,DewpointHighF,DewpointAvgF,DewpointLowF,HumidityHigh,HumidityAvg,HumidityLow,PressureMaxIn,PressureMinIn,WindSpeedMaxMPH,WindSpeedAvgMPH,GustSpeedMaxMPH,PrecipitationSumIn
2013-3-1,72.2,60.6,54.7,59.2,54.8,51.5,93,82,59,29.96,29.81,14,6,35,0.00
2013-3-2,68.4,60.6,56.1,53.9,52.4,50.6,85,75,60,29.96,29.74,7,2,15,0.00
2013-3-3,64.1,58.4,54.6,54.2,48.8,44.1,89,71,53,29.88,29.72,10,5,29,0.00
2013-3-4,71.1,57.5,50.2,52.9,48.2,42.9,92,72,50,29.96,29.56,14,4,29,0.00
2013-3-5,67.8,57.1,45.5,50.4,47.0,41.9,88,70,51,30.02,29.88,12,3,22,0.00
2013-3-6,84.7,59.9,48.2,55.0,46.9,40.5,89,67,21,30.13,29.77,14,3,39,0.00
2013-3-7,62.6,56.0,50.0,51.9,50.2,45.5,99,82,65,30.15,30.03,14,6,26,0.02
2013-3-8,79.9,66.1,49.0,57.9,53.2,47.9,99,65,36,30.24,30.03,12,7,25,0.00
2013-3-9,63.0,59.2,56.3,53.9,52.6,50.7,87,79,66,30.29,30.14,10,5,72,0.00
2013-3-10,65.8,60.1,56.8,55.9,54.7,52.8,88,82,68,30.24,30.12,8,4,128,0.00
2013-3-11,68.5,59.6,51.8,56.7,51.8,46.0,95,77,52,30.30,30.07,12,5,23,0.00
2013-3-12,60.1,56.5,54.0,49.6,48.4,45.9,82,74,69,30.30,30.08,12,4,19,0.00
2013-3-13,68.9,59.4,53.6,52.4,50.1,48.6,88,72,55,30.08,29.96,7,2,15,0.00
2013-3-14,70.7,59.1,48.7,58.2,54.1,47.1,99,84,64,29.99,29.80,10,4,23,0.00
2013-3-15,76.1,62.4,52.3,58.7,55.9,52.1,99,82,52,30.05,29.84,9,3,22,0.00
2013-3-16,66.9,59.9,57.2,55.7,53.5,51.8,88,80,65,30.07,29.82,9,4,19,0.00
2013-3-17,70.2,60.2,56.1,59.6,56.5,54.1,99,88,57,29.82,29.37,13,4,33,0.06
2013-3-18,59.2,55.5,51.8,58.9,54.8,50.4,99,97,92,29.69,29.39,10,4,25,0.57
2013-3-19,57.4,50.9,46.4,49.4,46.3,42.3,98,85,65,30.16,29.70,9,5,23,0.07
2013-3-20,63.7,51.6,38.1,47.5,43.8,36.5,99,77,51,30.36,30.17,8,2,15,0.00
2013-3-21,63.0,50.7,38.5,50.0,43.9,37.1,99,79,59,30.45,30.36,10,3,98,0.00
2013-3-22,65.3,56.5,44.2,54.6,50.2,42.3,95,80,65,30.45,30.31,10,4,90,0.00
2013-3-23,71.1,60.0,41.9,54.2,50.7,41.6,99,75,37,30.32,30.15,122,34,131,0.00
2013-3-24,74.3,58.2,45.5,56.1,48.5,44.9,99,74,38,30.16,30.07,5,1,12,0.00
2013-3-25,81.0,64.3,48.9,54.9,49.6,46.4,93,63,33,30.08,29.90,8,1,26,0.00
2013-3-26,66.4,60.3,53.6,54.2,51.9,49.2,86,75,59,30.30,30.22,10,6,26,0.00
2013-3-27,69.0,59.8,57.0,62.6,54.6,53.2,89,83,63,30.32,30.25,7,2,19,0.00
2013-3-28,67.3,59.1,55.8,56.8,54.1,52.7,93,84,68,30.31,30.11,9,4,21,0.00
2013-3-29,81.5,64.2,54.3,57.6,52.8,45.1,94,72,28,30.10,29.78,69,5,121,0.00
2013-3-30,77.0,62.4,46.6,57.3,49.5,44.0,94,66,39,29.86,29.78,9,3,23,0.00
2013-3-31,78.1,66.0,57.4,58.2,52.9,45.4,99,67,36,29.79,29.48,12,4,25,0.01